EN

Hourly Weather Alicun

Today, 28 January, Thursday

Time Temperature Precipitation Wind Pressure Humidity
00:00 +10°C° 0 mm 0 mps 702 mmHg 89%
01:00 +10°C° 0 mm 0 mps 701 mmHg 88%
02:00 +9°C° 0 mm 0 mps 701 mmHg 87%
03:00 +9°C° 0 mm 0 mps 701 mmHg 86%
04:00 +9°C° 0 mm 0 mps 701 mmHg 85%
05:00 +9°C° 0 mm 0 mps 701 mmHg 83%
06:00 +9°C° 0 mm 0 mps 701 mmHg 82%
07:00 +11°C° 0 mm 0 mps 701 mmHg 77%
08:00 +12°C° 0 mm 0 mps 702 mmHg 72%
09:00 +14°C° 0 mm 0 mps 702 mmHg 66%
10:00 +16°C° 0 mm 0 mps 703 mmHg 58%
11:00 +18°C° 0 mm 0 mps 703 mmHg 50%
12:00 +19°C° 0 mm 0 mps 703 mmHg 43%
13:00 +21°C° 0 mm 1 mps 703 mmHg 42%
14:00 +22°C° 0 mm 1 mps 702 mmHg 41%
15:00 +22°C° 0 mm 1 mps 702 mmHg 40%
16:00 +20°C° 0 mm 1 mps 701 mmHg 48%
17:00 +16°C° 0 mm 0 mps 701 mmHg 55%
18:00 +14°C° 0 mm 0 mps 701 mmHg 63%
19:00 +14°C° 0 mm 0 mps 701 mmHg 62%
20:00 +14°C° 0 mm 1 mps 701 mmHg 61%
21:00 +14°C° 0 mm 1 mps 700 mmHg 60%
22:00 +13°C° 0 mm 1 mps 700 mmHg 62%
23:00 +13°C° 0 mm 1 mps 701 mmHg 63%

Tomorrow, 29 January, Friday

Time Temperature Precipitation Wind Pressure Humidity
00:00 +13°C° 0 mm 1 mps 701 mmHg 65%
01:00 +12°C° 0 mm 1 mps 700 mmHg 67%
02:00 +12°C° 0 mm 1 mps 700 mmHg 70%
03:00 +11°C° 0 mm 1 mps 699 mmHg 73%
04:00 +10°C° 0 mm 0 mps 699 mmHg 74%
05:00 +10°C° 0 mm 0 mps 699 mmHg 75%
06:00 +9°C° 0 mm 0 mps 699 mmHg 76%
07:00 +11°C° 0 mm 0 mps 699 mmHg 71%
08:00 +13°C° 0 mm 0 mps 700 mmHg 67%
09:00 +15°C° 0 mm 0 mps 701 mmHg 62%
10:00 +18°C° 0 mm 1 mps 701 mmHg 57%
11:00 +19°C° 0 mm 1 mps 701 mmHg 51%
12:00 +20°C° 0 mm 1 mps 701 mmHg 45%
13:00 +21°C° 0 mm 1 mps 701 mmHg 46%
14:00 +20°C° 0 mm 2 mps 700 mmHg 46%
15:00 +20°C° 0 mm 3 mps 700 mmHg 46%
16:00 +18°C° 0 mm 2 mps 700 mmHg 57%
17:00 +16°C° 0 mm 2 mps 699 mmHg 67%
18:00 +14°C° 0 mm 1 mps 699 mmHg 77%
19:00 +13°C° 0 mm 1 mps 699 mmHg 78%
20:00 +13°C° 0 mm 1 mps 699 mmHg 79%
21:00 +12°C° 0 mm 1 mps 699 mmHg 81%
22:00 +12°C° 0 mm 1 mps 699 mmHg 81%
23:00 +12°C° 0 mm 1 mps 699 mmHg 82%

Day after tomorrow, 30 January, Saturday

Time Temperature Precipitation Wind Pressure Humidity
00:00 +11°C° 0 mm 1 mps 698 mmHg 82%
01:00 +11°C° 0 mm 1 mps 698 mmHg 83%
02:00 +11°C° 0 mm 1 mps 698 mmHg 84%
03:00 +9°C° 0 mm 2 mps 697 mmHg 84%
04:00 +9°C° 0 mm 2 mps 697 mmHg 84%
05:00 +9°C° 0 mm 2 mps 696 mmHg 84%
06:00 +9°C° 0 mm 3 mps 696 mmHg 84%
07:00 +10°C° 0 mm 3 mps 696 mmHg 85%
08:00 +10°C° 0 mm 4 mps 697 mmHg 85%
09:00 +10°C° 0 mm 5 mps 697 mmHg 86%
10:00 +11°C° 0 mm 6 mps 697 mmHg 82%
11:00 +11°C° 0 mm 7 mps 697 mmHg 78%
12:00 +12°C° 0 mm 8 mps 696 mmHg 74%
13:00 +12°C° 0.1 mm 8 mps 696 mmHg 71%
14:00 +12°C° 0.1 mm 9 mps 696 mmHg 69%
15:00 +12°C° 0.1 mm 9 mps 695 mmHg 66%
16:00 +11°C° 0 mm 9 mps 695 mmHg 71%
17:00 +10°C° 0 mm 9 mps 695 mmHg 76%
18:00 +9°C° 0 mm 8 mps 695 mmHg 80%
19:00 +7°C° 0 mm 8 mps 695 mmHg 81%
20:00 +6°C° 0 mm 8 mps 696 mmHg 81%
21:00 +6°C° 0 mm 7 mps 696 mmHg 81%
22:00 +5°C° 0 mm 7 mps 696 mmHg 83%
23:00 +5°C° 0 mm 6 mps 696 mmHg 84%

31 January, Sunday

Time Temperature Precipitation Wind Pressure Humidity
00:00 +5°C° 0 mm 5 mps 696 mmHg 86%
01:00 +5°C° 0 mm 5 mps 696 mmHg 86%
02:00 +5°C° 0 mm 5 mps 696 mmHg 85%
03:00 +3°C° 0 mm 5 mps 696 mmHg 85%
04:00 +4°C° 0 mm 4 mps 696 mmHg 85%
05:00 +4°C° 0 mm 4 mps 696 mmHg 85%
06:00 +4°C° 0 mm 3 mps 696 mmHg 86%
07:00 +5°C° 0 mm 3 mps 697 mmHg 83%
08:00 +7°C° 0 mm 3 mps 697 mmHg 80%
09:00 +7°C° 0 mm 3 mps 698 mmHg 78%
10:00 +8°C° 0 mm 4 mps 698 mmHg 74%
11:00 +10°C° 0 mm 5 mps 698 mmHg 70%
12:00 +11°C° 0 mm 6 mps 698 mmHg 67%
13:00 +11°C° 0 mm 6 mps 698 mmHg 65%
14:00 +13°C° 0 mm 6 mps 698 mmHg 63%
15:00 +13°C° 0 mm 6 mps 697 mmHg 60%
16:00 +12°C° 0 mm 5 mps 697 mmHg 67%
17:00 +9°C° 0 mm 5 mps 697 mmHg 73%
18:00 +8°C° 0 mm 4 mps 697 mmHg 79%
19:00 +8°C° 0 mm 4 mps 697 mmHg 81%
20:00 +8°C° 0 mm 4 mps 697 mmHg 83%
21:00 +7°C° 0 mm 4 mps 697 mmHg 85%
22:00 +8°C° 0 mm 4 mps 697 mmHg 86%
23:00 +8°C° 0 mm 4 mps 697 mmHg 87%

1 February, Monday

Time Temperature Precipitation Wind Pressure Humidity
00:00 +8°C° 0 mm 4 mps 697 mmHg 88%
01:00 +8°C° 0 mm 5 mps 697 mmHg 89%
02:00 +8°C° 0 mm 5 mps 697 mmHg 90%
03:00 +8°C° 0 mm 5 mps 697 mmHg 91%
04:00 +8°C° 0 mm 5 mps 697 mmHg 92%
05:00 +7°C° 0 mm 4 mps 697 mmHg 92%
06:00 +7°C° 0 mm 4 mps 697 mmHg 92%
07:00 +8°C° 0 mm 4 mps 697 mmHg 88%
08:00 +8°C° 0 mm 4 mps 698 mmHg 84%
09:00 +10°C° 0 mm 4 mps 698 mmHg 80%
10:00 +10°C° 0 mm 4 mps 698 mmHg 75%
11:00 +11°C° 0 mm 4 mps 699 mmHg 70%
12:00 +12°C° 0 mm 4 mps 699 mmHg 64%
13:00 +13°C° 0 mm 4 mps 699 mmHg 63%
14:00 +13°C° 0 mm 3 mps 698 mmHg 61%
15:00 +14°C° 0 mm 3 mps 698 mmHg 60%
16:00 +13°C° 0 mm 2 mps 698 mmHg 67%
17:00 +12°C° 0 mm 2 mps 698 mmHg 74%
18:00 +10°C° 0 mm 1 mps 698 mmHg 81%
19:00 +10°C° 0 mm 1 mps 698 mmHg 82%
20:00 +10°C° 0 mm 1 mps 699 mmHg 84%
21:00 +9°C° 0 mm 1 mps 699 mmHg 85%
22:00 +9°C° 0 mm 1 mps 699 mmHg 85%
23:00 +9°C° 0 mm 1 mps 699 mmHg 86%

2 February, Tuesday

Time Temperature Precipitation Wind Pressure Humidity
00:00 +7°C° 0 mm 0 mps 699 mmHg 86%
01:00 +7°C° 0 mm 0 mps 699 mmHg 86%
02:00 +7°C° 0 mm 0 mps 699 mmHg 86%
03:00 +6°C° 0 mm 0 mps 698 mmHg 86%
04:00 +6°C° 0 mm 0 mps 698 mmHg 85%
05:00 +6°C° 0 mm 0 mps 698 mmHg 84%
06:00 +6°C° 0 mm 0 mps 698 mmHg 83%
07:00 +8°C° 0 mm 0 mps 698 mmHg 77%
08:00 +10°C° 0 mm 0 mps 699 mmHg 71%
09:00 +11°C° 0 mm 0 mps 700 mmHg 65%
10:00 +13°C° 0 mm 0 mps 700 mmHg 59%
11:00 +15°C° 0 mm 1 mps 700 mmHg 52%
12:00 +18°C° 0 mm 1 mps 700 mmHg 46%
13:00 +19°C° 0 mm 1 mps 699 mmHg 44%
14:00 +19°C° 0 mm 1 mps 699 mmHg 42%
15:00 +20°C° 0 mm 1 mps 698 mmHg 40%
16:00 +18°C° 0 mm 1 mps 698 mmHg 48%
17:00 +14°C° 0 mm 1 mps 698 mmHg 55%
18:00 +12°C° 0 mm 1 mps 697 mmHg 63%
19:00 +12°C° 0 mm 1 mps 697 mmHg 64%
20:00 +11°C° 0 mm 1 mps 697 mmHg 65%
21:00 +11°C° 0 mm 1 mps 697 mmHg 65%
22:00 +10°C° 0 mm 1 mps 697 mmHg 63%
23:00 +10°C° 0 mm 1 mps 696 mmHg 61%
Show more